| time (UTC) | temp F | wind direction | speed MPH | gust MPH | rain 1hr in | rain 24hr in | rain mn in | humidity % | barometer mb |
| 20260505024926 | 47 | 203 | 0.0 | 0.0 | 0.04 | 0.15 | 0.05 | 99 | 1010.2 |
| 20260505024726 | 47 | 203 | 0.0 | 0.0 | 0.04 | 0.15 | 0.05 | 99 | 1010.2 |
| 20260505024524 | 47 | 203 | 0.0 | 0.0 | 0.04 | 0.15 | 0.05 | 99 | 1010.3 |
| 20260505024317 | 47 | 203 | 0.0 | 0.0 | 0.04 | 0.15 | 0.05 | 99 | 1010.2 |
| 20260505024111 | 47 | 203 | 0.0 | 0.0 | 0.04 | 0.14 | 0.04 | 99 | 1010.3 |
| 20260505023908 | 47 | 202 | 0.0 | 0.0 | 0.06 | 0.14 | 0.04 | 99 | 1010.4 |
| 20260505023708 | 47 | 203 | 0.0 | 0.0 | 0.07 | 0.14 | 0.04 | 99 | 1010.4 |
| 20260505023508 | 47 | 203 | 0.0 | 0.0 | 0.08 | 0.14 | 0.04 | 99 | 1010.4 |
| 20260505023300 | 47 | 202 | 0.0 | 0.0 | 0.08 | 0.14 | 0.04 | 99 | 1010.4 |
| 20260505023101 | 47 | 202 | 0.0 | 0.0 | 0.06 | 0.14 | 0.03 | 99 | 1010.4 |
| 20260505022858 | 47 | 202 | 0.0 | 0.0 | 0.06 | 0.14 | 0.03 | 99 | 1010.4 |
| 20260505022658 | 47 | 202 | 0.0 | 0.0 | 0.06 | 0.14 | 0.03 | 99 | 1010.4 |
| 20260505022459 | 47 | 201 | 0.0 | 1.0 | 0.04 | 0.13 | 0.03 | 99 | 1010.5 |
| 20260505022256 | 47 | 236 | 0.0 | 0.0 | 0.04 | 0.13 | 0.03 | 99 | 1010.6 |
| 20260505022049 | 47 | 236 | 0.0 | 0.0 | 0.04 | 0.13 | 0.03 | 99 | 1010.5 |
| 20260505021514 | 47 | 236 | 0.0 | 0.0 | 0.03 | 0.12 | 0.02 | 99 | 1010.7 |
| 20260505021307 | 47 | 237 | 0.0 | 0.0 | 0.03 | 0.12 | 0.02 | 99 | 1010.7 |
| 20260505021106 | 47 | 236 | 0.0 | 0.0 | 0.03 | 0.12 | 0.02 | 99 | 1010.7 |
| 20260505020902 | 47 | 236 | 0.0 | 0.0 | 0.03 | 0.12 | 0.02 | 99 | 1010.8 |
| 20260505020701 | 47 | 237 | 0.0 | 0.0 | 0.00 | 0.11 | 0.01 | 99 | 1010.8 |
| 20260505020455 | 47 | 236 | 0.0 | 0.0 | 0.00 | 0.11 | 0.01 | 99 | 1010.8 |
| 20260505020247 | 47 | 236 | 0.0 | 0.0 | 0.00 | 0.11 | 0.01 | 99 | 1010.8 |
| 20260505015359 | 47 | 236 | 0.0 | 0.0 | 0.00 | 0.11 | 0.01 | 99 | 1010.8 |
| 20260505014833 | 47 | 236 | 0.0 | 5.0 | 0.00 | 0.11 | 0.00 | 99 | 1011.0 |
| 20260505014310 | 47 | 129 | 0.0 | 0.0 | 0.00 | 0.11 | 0.00 | 99 | 1011.0 |
| 20260505014110 | 47 | 129 | 0.0 | 0.0 | 0.00 | 0.11 | 0.00 | 99 | 1011.0 |
| 20260505013904 | 47 | 116 | 0.0 | 0.0 | 0.00 | 0.11 | 0.00 | 99 | 1011.0 |
| 20260505013703 | 47 | 116 | 0.0 | 1.0 | 0.00 | 0.11 | 0.00 | 99 | 1011.0 |
| 20260505013501 | 47 | 116 | 0.0 | 0.0 | 0.00 | 0.11 | 0.00 | 99 | 1011.0 |
| 20260505013300 | 47 | 106 | 0.0 | 0.0 | 0.00 | 0.11 | 0.00 | 99 | 1011.0 |
| 20260505013056 | 47 | 106 | 0.0 | 0.0 | 0.00 | 0.11 | 0.00 | 99 | 1011.0 |
| 20260505012855 | 47 | 106 | 0.0 | 0.0 | 0.00 | 0.11 | 0.00 | 99 | 1010.9 |
| 20260505012655 | 47 | 106 | 0.0 | 0.0 | 0.00 | 0.11 | 0.00 | 99 | 1010.9 |
| 20260505012455 | 47 | 99 | 0.0 | 0.0 | 0.00 | 0.11 | 0.00 | 99 | 1010.8 |
| 20260505012256 | 47 | 99 | 0.0 | 1.0 | 0.00 | 0.11 | 0.00 | 99 | 1010.6 |
| 20260505012052 | 48 | 89 | 0.0 | 0.0 | 0.00 | 0.11 | 0.00 | 100 | 1010.6 |
| 20260505011211 | 48 | 81 | 0.0 | 0.0 | 0.00 | 0.11 | 0.00 | 100 | 1010.7 |
| 20260505011005 | 48 | 81 | 0.0 | 0.0 | 0.00 | 0.11 | 0.00 | 100 | 1010.7 |
| 20260505010133 | 48 | 79 | 0.0 | 3.0 | 0.00 | 0.10 | 0.00 | 100 | 1010.8 |
| 20260505005923 | 47 | 79 | 0.0 | 3.0 | 0.00 | 0.10 | 0.00 | 100 | 1010.8 |
| 20260505005352 | 48 | 83 | 1.0 | 3.0 | 0.00 | 0.10 | 0.00 | 100 | 1010.9 |
| 20260505005146 | 48 | 62 | 1.0 | 3.0 | 0.00 | 0.10 | 0.00 | 100 | 1010.9 |
| 20260505004613 | 48 | 79 | 1.0 | 3.0 | 0.00 | 0.10 | 0.00 | 100 | 1011.0 |
| 20260505004408 | 47 | 71 | 1.0 | 3.0 | 0.00 | 0.10 | 0.00 | 100 | 1011.0 |
| 20260505004206 | 47 | 53 | 1.0 | 5.0 | 0.00 | 0.10 | 0.00 | 100 | 1011.1 |
| 20260505004006 | 47 | 67 | 1.0 | 5.0 | 0.00 | 0.10 | 0.00 | 100 | 1011.0 |
| 20260505003801 | 47 | 41 | 1.0 | 5.0 | 0.00 | 0.10 | 0.00 | 100 | 1011.1 |
| 20260505003551 | 47 | 103 | 1.0 | 5.0 | 0.00 | 0.10 | 0.00 | 100 | 1011.2 |
| 20260505003025 | 47 | 59 | 2.0 | 5.0 | 0.00 | 0.10 | 0.00 | 100 | 1011.2 |
| 20260505002822 | 47 | 80 | 2.0 | 5.0 | 0.00 | 0.10 | 0.00 | 100 | 1011.2 |
| 20260505002620 | 47 | 103 | 1.0 | 5.0 | 0.00 | 0.10 | 0.00 | 100 | 1011.2 |
| 20260505002416 | 47 | 84 | 1.0 | 5.0 | 0.00 | 0.10 | 0.00 | 100 | 1011.2 |
| 20260505002210 | 47 | 47 | 1.0 | 4.0 | 0.00 | 0.10 | 0.00 | 100 | 1011.1 |
| 20260505002009 | 47 | 58 | 1.0 | 4.0 | 0.00 | 0.10 | 0.00 | 100 | 1011.1 |
| 20260505001444 | 47 | 56 | 1.0 | 4.0 | 0.00 | 0.10 | 0.00 | 100 | 1011.3 |
| 20260505001235 | 47 | 62 | 1.0 | 4.0 | 0.00 | 0.10 | 0.00 | 100 | 1011.3 |
| 20260505000701 | 47 | 94 | 1.0 | 4.0 | 0.00 | 0.10 | 0.00 | 100 | 1011.3 |
| 20260505000456 | 47 | 65 | 2.0 | 4.0 | 0.00 | 0.10 | 0.00 | 100 | 1011.3 |
| 20260505000250 | 47 | 53 | 2.0 | 4.0 | 0.00 | 0.10 | 0.00 | 100 | 1011.3 |
| 20260505000041 | 47 | 107 | 2.0 | 4.0 | 0.00 | 0.10 | 0.00 | 99 | 1011.4 |
| 20260504235831 | 47 | 81 | 2.0 | 4.0 | 0.00 | 0.10 | 0.00 | 100 | 1011.4 |
| 20260504235625 | 47 | 95 | 1.0 | 4.0 | 0.00 | 0.10 | 0.00 | 99 | 1011.4 |
| 20260504235104 | 47 | 89 | 1.0 | 4.0 | 0.00 | 0.10 | 0.00 | 99 | 1011.4 |
| 20260504234903 | 47 | 102 | 1.0 | 4.0 | 0.00 | 0.10 | 0.00 | 99 | 1011.4 |
| 20260504234658 | 47 | 90 | 1.0 | 4.0 | 0.00 | 0.10 | 0.00 | 99 | 1011.5 |
| 20260504234133 | 47 | 58 | 2.0 | 7.0 | 0.00 | 0.10 | 0.00 | 99 | 1011.5 |
| 20260504233927 | 47 | 118 | 2.0 | 7.0 | 0.00 | 0.10 | 0.00 | 99 | 1011.5 |
| 20260504233722 | 47 | 120 | 2.0 | 7.0 | 0.00 | 0.10 | 0.00 | 99 | 1011.6 |
| 20260504233513 | 47 | 65 | 2.0 | 7.0 | 0.00 | 0.10 | 0.00 | 99 | 1011.5 |
| 20260504232944 | 47 | 96 | 2.0 | 7.0 | 0.00 | 0.10 | 0.00 | 99 | 1011.6 |
| 20260504232740 | 47 | 80 | 2.0 | 7.0 | 0.00 | 0.10 | 0.00 | 99 | 1011.6 |
| 20260504232537 | 47 | 108 | 2.0 | 7.0 | 0.00 | 0.10 | 0.00 | 99 | 1011.6 |
| 20260504232333 | 47 | 65 | 2.0 | 6.0 | 0.00 | 0.10 | 0.00 | 99 | 1011.7 |
| 20260504232123 | 47 | 96 | 2.0 | 6.0 | 0.00 | 0.10 | 0.00 | 99 | 1011.7 |
| 20260504231922 | 47 | 84 | 3.0 | 6.0 | 0.00 | 0.10 | 0.00 | 99 | 1011.6 |
| 20260504231723 | 47 | 49 | 3.0 | 6.0 | 0.00 | 0.10 | 0.00 | 99 | 1011.6 |
| 20260504231513 | 47 | 64 | 3.0 | 6.0 | 0.00 | 0.10 | 0.00 | 99 | 1011.6 |
| 20260504231312 | 47 | 83 | 3.0 | 7.0 | 0.00 | 0.10 | 0.00 | 99 | 1011.6 |
| 20260504230737 | 47 | 91 | 3.0 | 7.0 | 0.00 | 0.10 | 0.00 | 99 | 1011.7 |
| 20260504230529 | 47 | 92 | 3.0 | 7.0 | 0.00 | 0.10 | 0.00 | 99 | 1011.7 |
| 20260504230323 | 47 | 66 | 3.0 | 7.0 | 0.00 | 0.10 | 0.00 | 99 | 1011.7 |
| 20260504230113 | 47 | 53 | 3.0 | 7.0 | 0.00 | 0.10 | 0.00 | 99 | 1011.8 |
| 20260504225912 | 47 | 86 | 3.0 | 7.0 | 0.00 | 0.10 | 0.00 | 99 | 1011.8 |
| 20260504225710 | 47 | 105 | 3.0 | 7.0 | 0.00 | 0.10 | 0.00 | 99 | 1011.8 |
| 20260504225505 | 47 | 62 | 2.0 | 7.0 | 0.00 | 0.10 | 0.00 | 99 | 1011.9 |
| 20260504225304 | 47 | 84 | 1.0 | 5.0 | 0.00 | 0.10 | 0.00 | 99 | 1011.9 |
| 20260504224732 | 47 | 82 | 1.0 | 5.0 | 0.00 | 0.10 | 0.00 | 99 | 1012.0 |
| 20260504224206 | 47 | 75 | 1.0 | 5.0 | 0.00 | 0.10 | 0.00 | 99 | 1012.0 |
| 20260504223636 | 46 | 69 | 0.0 | 3.0 | 0.00 | 0.10 | 0.00 | 99 | 1012.0 |
| 20260504222424 | 47 | 77 | 0.0 | 2.0 | 0.00 | 0.10 | 0.00 | 98 | 1012.1 |
| 20260504222222 | 47 | 78 | 0.0 | 2.0 | 0.00 | 0.10 | 0.00 | 98 | 1012.1 |
| 20260504222012 | 47 | 68 | 0.0 | 2.0 | 0.00 | 0.10 | 0.00 | 99 | 1012.1 |
| 20260504221806 | 47 | 72 | 0.0 | 2.0 | 0.00 | 0.10 | 0.00 | 99 | 1012.1 |
| 20260504221559 | 47 | 89 | 0.0 | 1.0 | 0.00 | 0.10 | 0.00 | 99 | 1012.1 |
| 20260504221358 | 47 | 89 | 0.0 | 1.0 | 0.00 | 0.10 | 0.00 | 99 | 1012.2 |
| 20260504221154 | 47 | 96 | 0.0 | 1.0 | 0.00 | 0.10 | 0.00 | 99 | 1012.1 |
| 20260504220627 | 47 | 97 | 0.0 | 0.0 | 0.00 | 0.10 | 0.00 | 99 | 1012.2 |
| 20260504220426 | 47 | 97 | 0.0 | 0.0 | 0.00 | 0.10 | 0.00 | 99 | 1012.2 |
| 20260504220216 | 47 | 97 | 0.0 | 1.0 | 0.00 | 0.10 | 0.00 | 99 | 1012.2 |
| 20260504220014 | 47 | 97 | 0.0 | 1.0 | 0.00 | 0.10 | 0.00 | 99 | 1012.3 |
| 20260504215804 | 47 | 100 | 0.0 | 1.0 | 0.00 | 0.10 | 0.10 | 99 | 1012.4 |
| 20260504215559 | 47 | 100 | 0.0 | 1.0 | 0.00 | 0.10 | 0.10 | 99 | 1012.4 |
| 20260504215042 | 47 | 101 | 0.0 | 0.0 | 0.00 | 0.10 | 0.10 | 98 | 1012.4 |
| 20260504214832 | 47 | 101 | 0.0 | 0.0 | 0.00 | 0.10 | 0.10 | 98 | 1012.4 |
| 20260504214626 | 47 | 100 | 0.0 | 0.0 | 0.00 | 0.10 | 0.10 | 98 | 1012.4 |
| 20260504214426 | 47 | 100 | 0.0 | 0.0 | 0.00 | 0.10 | 0.10 | 98 | 1012.4 |
| 20260504214226 | 47 | 101 | 0.0 | 0.0 | 0.00 | 0.10 | 0.10 | 98 | 1012.4 |
| 20260504213658 | 47 | 101 | 0.0 | 0.0 | 0.00 | 0.10 | 0.10 | 98 | 1012.4 |
| 20260504213451 | 47 | 100 | 0.0 | 0.0 | 0.00 | 0.10 | 0.10 | 98 | 1012.4 |
| 20260504213248 | 47 | 100 | 0.0 | 0.0 | 0.00 | 0.10 | 0.10 | 98 | 1012.4 |
| 20260504213043 | 47 | 100 | 0.0 | 0.0 | 0.00 | 0.10 | 0.10 | 98 | 1012.6 |
| 20260504212834 | 47 | 100 | 0.0 | 0.0 | 0.00 | 0.10 | 0.10 | 98 | 1012.6 |
| 20260504212635 | 47 | 101 | 0.0 | 0.0 | 0.00 | 0.10 | 0.10 | 98 | 1012.6 |
| 20260504212428 | 47 | 100 | 0.0 | 0.0 | 0.00 | 0.10 | 0.10 | 98 | 1012.7 |
| 20260504211905 | 47 | 101 | 0.0 | 0.0 | 0.00 | 0.10 | 0.10 | 98 | 1012.5 |
| 20260504211655 | 47 | 100 | 0.0 | 0.0 | 0.00 | 0.10 | 0.10 | 98 | 1012.5 |
| 20260504211454 | 47 | 100 | 0.0 | 0.0 | 0.00 | 0.10 | 0.10 | 97 | 1012.6 |
| 20260504210939 | 47 | 100 | 0.0 | 1.0 | 0.00 | 0.10 | 0.10 | 97 | 1012.6 |
| 20260504210732 | 47 | 110 | 0.0 | 0.0 | 0.00 | 0.10 | 0.10 | 97 | 1012.6 |
| 20260504210213 | 47 | 111 | 1.0 | 6.0 | 0.00 | 0.10 | 0.10 | 97 | 1012.6 |
| 20260504210007 | 47 | 122 | 2.0 | 6.0 | 0.00 | 0.10 | 0.10 | 97 | 1012.6 |
| 20260504205803 | 47 | 119 | 2.0 | 6.0 | 0.00 | 0.10 | 0.10 | 97 | 1012.5 |
| 20260504205557 | 47 | 124 | 2.0 | 6.0 | 0.00 | 0.10 | 0.10 | 97 | 1012.5 |
| 20260504205352 | 47 | 136 | 3.0 | 6.0 | 0.00 | 0.10 | 0.10 | 97 | 1012.5 |
| 20260504205146 | 48 | 104 | 3.0 | 6.0 | 0.00 | 0.10 | 0.10 | 97 | 1012.5 |
| 20260504204936 | 47 | 117 | 2.0 | 6.0 | 0.00 | 0.10 | 0.10 | 96 | 1012.5 |
| 20260504204731 | 47 | 115 | 2.0 | 6.0 | 0.00 | 0.10 | 0.10 | 96 | 1012.5 |
| 20260504204209 | 48 | 120 | 1.0 | 4.0 | 0.00 | 0.10 | 0.10 | 95 | 1012.6 |
| 20260504204008 | 48 | 126 | 1.0 | 4.0 | 0.00 | 0.10 | 0.10 | 96 | 1012.6 |
| 20260504203806 | 48 | 92 | 1.0 | 4.0 | 0.00 | 0.10 | 0.10 | 96 | 1012.6 |
| 20260504203603 | 48 | 100 | 1.0 | 3.0 | 0.00 | 0.10 | 0.10 | 96 | 1012.6 |
| 20260504203359 | 48 | 126 | 0.0 | 3.0 | 0.00 | 0.10 | 0.10 | 96 | 1012.6 |
| 20260504203154 | 48 | 126 | 0.0 | 3.0 | 0.00 | 0.10 | 0.10 | 96 | 1012.6 |
| 20260504202626 | 48 | 103 | 0.0 | 2.0 | 0.00 | 0.10 | 0.10 | 97 | 1012.7 |
| 20260504202421 | 48 | 116 | 0.0 | 2.0 | 0.00 | 0.10 | 0.10 | 97 | 1012.8 |
| 20260504202213 | 48 | 124 | 0.0 | 2.0 | 0.00 | 0.10 | 0.10 | 97 | 1012.8 |
| 20260504202007 | 48 | 120 | 0.0 | 2.0 | 0.00 | 0.10 | 0.10 | 97 | 1012.9 |
| 20260504201803 | 48 | 119 | 1.0 | 2.0 | 0.00 | 0.10 | 0.10 | 97 | 1012.8 |
| 20260504201559 | 48 | 132 | 1.0 | 2.0 | 0.00 | 0.10 | 0.10 | 97 | 1012.7 |
| 20260504201354 | 48 | 107 | 1.0 | 0.0 | 0.00 | 0.10 | 0.10 | 98 | 1012.8 |
| 20260504201147 | 48 | 113 | 2.0 | 6.0 | 0.00 | 0.10 | 0.10 | 98 | 1012.8 |
| 20260504200948 | 47 | 89 | 2.0 | 6.0 | 0.00 | 0.10 | 0.10 | 98 | 1012.8 |
| 20260504200749 | 47 | 136 | 2.0 | 6.0 | 0.00 | 0.10 | 0.10 | 98 | 1012.8 |
| 20260504200548 | 47 | 117 | 2.0 | 6.0 | 0.00 | 0.10 | 0.10 | 98 | 1012.9 |
| 20260504200347 | 47 | 117 | 2.0 | 6.0 | 0.00 | 0.10 | 0.10 | 98 | 1012.9 |
| 20260504200144 | 47 | 121 | 2.0 | 6.0 | 0.00 | 0.10 | 0.10 | 98 | 1012.9 |
| 20260504195619 | 47 | 111 | 2.0 | 5.0 | 0.00 | 0.10 | 0.10 | 97 | 1012.8 |
| 20260504195411 | 47 | 108 | 2.0 | 5.0 | 0.00 | 0.10 | 0.10 | 97 | 1012.7 |
| 20260504195203 | 47 | 79 | 2.0 | 5.0 | 0.00 | 0.10 | 0.10 | 97 | 1012.9 |
| 20260504194954 | 47 | 119 | 1.0 | 5.0 | 0.00 | 0.10 | 0.10 | 96 | 1013.0 |
| 20260504194431 | 47 | 117 | 0.0 | 2.0 | 0.00 | 0.10 | 0.10 | 96 | 1013.2 |
| 20260504194232 | 48 | 114 | 0.0 | 1.0 | 0.00 | 0.10 | 0.10 | 95 | 1013.1 |
| 20260504194023 | 48 | 118 | 0.0 | 0.0 | 0.00 | 0.10 | 0.10 | 95 | 1013.2 |
| 20260504193818 | 48 | 241 | 0.0 | 0.0 | 0.00 | 0.10 | 0.10 | 95 | 1013.2 |
| 20260504193611 | 48 | 241 | 0.0 | 0.0 | 0.00 | 0.10 | 0.10 | 95 | 1013.2 |
| 20260504193405 | 48 | 241 | 0.0 | 0.0 | 0.00 | 0.10 | 0.10 | 95 | 1013.2 |
| 20260504193205 | 48 | 241 | 0.0 | 0.0 | 0.00 | 0.10 | 0.10 | 95 | 1013.2 |
| 20260504193006 | 48 | 241 | 0.0 | 0.0 | 0.00 | 0.10 | 0.10 | 95 | 1013.2 |
| 20260504192806 | 48 | 241 | 0.0 | 0.0 | 0.00 | 0.10 | 0.10 | 95 | 1013.1 |
| 20260504192559 | 48 | 241 | 0.0 | 1.0 | 0.00 | 0.10 | 0.10 | 95 | 1013.2 |
| 20260504192359 | 48 | 223 | 0.0 | 0.0 | 0.00 | 0.10 | 0.10 | 95 | 1013.2 |
| 20260504191833 | 48 | 205 | 0.0 | 0.0 | 0.00 | 0.10 | 0.10 | 95 | 1013.2 |
| 20260504191627 | 48 | 205 | 0.0 | 0.0 | 0.00 | 0.10 | 0.10 | 95 | 1013.1 |
| 20260504191416 | 48 | 205 | 0.0 | 0.0 | 0.00 | 0.10 | 0.10 | 95 | 1013.1 |
| 20260504191216 | 48 | 205 | 0.0 | 0.0 | 0.00 | 0.10 | 0.10 | 95 | 1013.0 |
| 20260504191013 | 48 | 204 | 0.0 | 0.0 | 0.00 | 0.10 | 0.10 | 95 | 1013.1 |
| 20260504190806 | 49 | 204 | 0.0 | 0.0 | 0.00 | 0.10 | 0.10 | 95 | 1013.1 |
| 20260504190606 | 49 | 204 | 0.0 | 0.0 | 0.00 | 0.10 | 0.10 | 94 | 1013.1 |
| 20260504190404 | 49 | 203 | 0.0 | 0.0 | 0.00 | 0.10 | 0.10 | 94 | 1013.1 |
| 20260504190202 | 49 | 203 | 0.0 | 0.0 | 0.00 | 0.10 | 0.10 | 94 | 1013.0 |
| 20260504185313 | 49 | 216 | 0.0 | 2.0 | 0.00 | 0.10 | 0.10 | 95 | 1013.0 |
| 20260504185113 | 49 | 212 | 0.0 | 2.0 | 0.00 | 0.10 | 0.10 | 95 | 1013.1 |
| 20260504184543 | 48 | 214 | 0.0 | 2.0 | 0.00 | 0.10 | 0.10 | 95 | 1013.1 |
| 20260504184338 | 48 | 219 | 0.0 | 2.0 | 0.00 | 0.10 | 0.10 | 95 | 1013.2 |
| 20260504184135 | 48 | 205 | 0.0 | 2.0 | 0.00 | 0.10 | 0.10 | 95 | 1013.2 |
| 20260504183927 | 48 | 227 | 0.0 | 3.0 | 0.00 | 0.10 | 0.10 | 95 | 1013.1 |
| 20260504183718 | 48 | 229 | 0.0 | 3.0 | 0.00 | 0.10 | 0.10 | 95 | 1013.1 |
| 20260504183159 | 49 | 207 | 1.0 | 3.0 | 0.00 | 0.10 | 0.10 | 95 | 1013.1 |
| 20260504182634 | 49 | 188 | 1.0 | 3.0 | 0.00 | 0.10 | 0.10 | 95 | 1013.0 |
| 20260504182434 | 49 | 226 | 1.0 | 3.0 | 0.00 | 0.10 | 0.10 | 95 | 1013.1 |
| 20260504182229 | 49 | 210 | 1.0 | 3.0 | 0.00 | 0.10 | 0.10 | 95 | 1013.1 |
| 20260504182028 | 49 | 228 | 1.0 | 3.0 | 0.00 | 0.10 | 0.10 | 95 | 1013.1 |
| 20260504181829 | 48 | 209 | 0.0 | 3.0 | 0.00 | 0.10 | 0.10 | 95 | 1013.1 |
| 20260504181623 | 48 | 223 | 0.0 | 3.0 | 0.00 | 0.10 | 0.10 | 96 | 1013.2 |
| 20260504181420 | 48 | 236 | 0.0 | 3.0 | 0.00 | 0.10 | 0.10 | 96 | 1013.1 |
| 20260504181211 | 48 | 152 | 0.0 | 3.0 | 0.00 | 0.10 | 0.10 | 95 | 1013.1 |
| 20260504181003 | 48 | 229 | 0.0 | 3.0 | 0.00 | 0.10 | 0.10 | 95 | 1013.3 |
| 20260504180801 | 48 | 222 | 1.0 | 3.0 | 0.00 | 0.10 | 0.10 | 95 | 1013.3 |
| 20260504180558 | 48 | 227 | 0.0 | 3.0 | 0.00 | 0.10 | 0.10 | 96 | 1013.4 |
| 20260504180352 | 48 | 233 | 0.0 | 3.0 | 0.00 | 0.10 | 0.10 | 95 | 1013.4 |
| 20260504175827 | 48 | 240 | 0.0 | 4.0 | 0.00 | 0.10 | 0.10 | 95 | 1013.4 |
| 20260504175619 | 48 | 222 | 0.0 | 4.0 | 0.00 | 0.10 | 0.10 | 95 | 1013.4 |
| 20260504175420 | 48 | 226 | 0.0 | 4.0 | 0.00 | 0.10 | 0.10 | 95 | 1013.5 |
| 20260504175212 | 48 | 208 | 0.0 | 4.0 | 0.00 | 0.10 | 0.10 | 95 | 1013.4 |
| 20260504175005 | 48 | 210 | 1.0 | 4.0 | 0.00 | 0.10 | 0.10 | 95 | 1013.4 |
| 20260504174803 | 48 | 222 | 1.0 | 4.0 | 0.00 | 0.10 | 0.10 | 95 | 1013.4 |
| 20260504174600 | 48 | 214 | 1.0 | 4.0 | 0.00 | 0.10 | 0.10 | 94 | 1013.4 |
| 20260504174352 | 48 | 232 | 1.0 | 4.0 | 0.00 | 0.10 | 0.10 | 94 | 1013.4 |
| 20260504174150 | 48 | 241 | 1.0 | 4.0 | 0.00 | 0.10 | 0.10 | 94 | 1013.4 |
| 20260504173947 | 48 | 210 | 1.0 | 4.0 | 0.00 | 0.10 | 0.10 | 94 | 1013.4 |
| 20260504173737 | 48 | 192 | 1.0 | 4.0 | 0.00 | 0.10 | 0.10 | 94 | 1013.5 |
| 20260504173213 | 48 | 221 | 1.0 | 4.0 | 0.00 | 0.10 | 0.10 | 95 | 1013.4 |
| 20260504173010 | 48 | 245 | 1.0 | 4.0 | 0.00 | 0.10 | 0.10 | 95 | 1013.3 |
| 20260504172800 | 48 | 219 | 0.0 | 4.0 | 0.00 | 0.10 | 0.10 | 95 | 1013.4 |
| 20260504172551 | 48 | 181 | 0.0 | 2.0 | 0.00 | 0.10 | 0.10 | 95 | 1013.4 |
| 20260504172023 | 48 | 224 | 0.0 | 3.0 | 0.00 | 0.10 | 0.10 | 96 | 1013.4 |
| 20260504171817 | 48 | 221 | 0.0 | 3.0 | 0.00 | 0.10 | 0.10 | 96 | 1013.4 |
| 20260504171616 | 48 | 137 | 0.0 | 3.0 | 0.00 | 0.10 | 0.10 | 96 | 1013.4 |
| 20260504171410 | 48 | 207 | 0.0 | 3.0 | 0.00 | 0.10 | 0.10 | 96 | 1013.6 |
| 20260504170847 | 48 | 241 | 0.0 | 2.0 | 0.00 | 0.10 | 0.10 | 96 | 1013.6 |
| 20260504170328 | 48 | 224 | 0.0 | 2.0 | 0.00 | 0.10 | 0.10 | 96 | 1013.6 |
| 20260504170120 | 48 | 207 | 0.0 | 2.0 | 0.00 | 0.10 | 0.10 | 96 | 1013.6 |
| 20260504150339 | 49 | 201 | 9.0 | 15.0 | 0.00 | 0.08 | 0.08 | 98 | 1014.2 |
| 20260504150134 | 49 | 229 | 9.0 | 14.0 | 0.00 | 0.08 | 0.08 | 98 | 1014.2 |
| 20260504141310 | 49 | 306 | 7.0 | 12.0 | 0.05 | 0.07 | 0.07 | 97 | 1014.6 |
| 20260504141105 | 49 | 212 | 6.0 | 12.0 | 0.07 | 0.07 | 0.07 | 97 | 1014.7 |
| 20260504140857 | 49 | 246 | 6.0 | 11.0 | 0.07 | 0.07 | 0.07 | 97 | 1014.6 |
| 20260504140647 | 49 | 236 | 5.0 | 11.0 | 0.07 | 0.07 | 0.07 | 97 | 1014.6 |
| 20260504140444 | 49 | 229 | 5.0 | 11.0 | 0.07 | 0.06 | 0.06 | 97 | 1014.6 |
| 20260504140244 | 49 | 246 | 5.0 | 11.0 | 0.07 | 0.06 | 0.06 | 97 | 1014.6 |
| 20260504130748 | 51 | 244 | 6.0 | 12.0 | 0.00 | 0.00 | 0.00 | 95 | 1014.8 |
| 20260504130220 | 51 | 241 | 5.0 | 12.0 | 0.00 | 0.00 | 0.00 | 94 | 1014.7 |
| 20260504120128 | 53 | 227 | 4.0 | 9.0 | 0.00 | 0.00 | 0.00 | 91 | 1014.5 |
| 20260504110537 | 55 | 233 | 3.0 | 8.0 | 0.00 | 0.00 | 0.00 | 83 | 1014.3 |
| 20260504100551 | 54 | 268 | 1.0 | 8.0 | 0.00 | 0.00 | 0.00 | 87 | 1014.2 |
| 20260504100349 | 54 | 277 | 1.0 | 8.0 | 0.00 | 0.00 | 0.00 | 87 | 1014.3 |
| 20260504100139 | 54 | 300 | 2.0 | 8.0 | 0.00 | 0.00 | 0.00 | 88 | 1014.3 |
| 20260504081513 | 54 | 273 | 0.0 | 3.0 | 0.00 | 0.00 | 0.00 | 83 | 1013.8 |
| 20260504081303 | 54 | 277 | 0.0 | 2.0 | 0.00 | 0.00 | 0.00 | 84 | 1013.8 |
| 20260504080737 | 54 | 267 | 0.0 | 1.0 | 0.00 | 0.00 | 0.00 | 85 | 1013.8 |
| 20260504080533 | 53 | 245 | 0.0 | 1.0 | 0.00 | 0.00 | 0.00 | 85 | 1013.8 |
| 20260504080323 | 53 | 257 | 0.0 | 2.0 | 0.00 | 0.00 | 0.00 | 85 | 1013.7 |
| 20260504080117 | 53 | 257 | 0.0 | 2.0 | 0.00 | 0.00 | 0.00 | 85 | 1013.7 |
| 20260504070236 | 52 | 61 | 2.0 | 5.0 | 0.00 | 0.00 | 0.00 | 86 | 1013.6 |
| 20260504060232 | 50 | 86 | 2.0 | 7.0 | 0.00 | 0.00 | 0.00 | 90 | 1013.6 |
| 20260504050657 | 49 | 116 | 1.0 | 4.0 | 0.00 | 0.00 | 0.00 | 89 | 1013.8 |
| 20260504050453 | 49 | 123 | 1.0 | 4.0 | 0.00 | 0.00 | 0.00 | 90 | 1013.7 |
| 20260504050251 | 49 | 114 | 1.0 | 4.0 | 0.00 | 0.00 | 0.00 | 90 | 1013.7 |
| 20260504045728 | 49 | 121 | 1.0 | 5.0 | 0.00 | 0.00 | 0.00 | 90 | 1013.7 |
| 20260504045203 | 49 | 105 | 2.0 | 5.0 | 0.00 | 0.00 | 0.00 | 90 | 1013.6 |
| 20260504044954 | 49 | 92 | 2.0 | 5.0 | 0.00 | 0.00 | 0.00 | 89 | 1013.6 |
| 20260504044753 | 49 | 100 | 2.0 | 5.0 | 0.00 | 0.00 | 0.00 | 89 | 1013.5 |
| 20260504044549 | 49 | 96 | 2.0 | 5.0 | 0.00 | 0.00 | 0.00 | 89 | 1013.5 |
| 20260504044347 | 49 | 94 | 2.0 | 5.0 | 0.00 | 0.00 | 0.00 | 89 | 1013.5 |
| 20260504044148 | 49 | 103 | 2.0 | 5.0 | 0.00 | 0.00 | 0.00 | 89 | 1013.5 |
| 20260504043941 | 49 | 97 | 2.0 | 6.0 | 0.00 | 0.00 | 0.00 | 89 | 1013.5 |
| 20260504043740 | 49 | 91 | 2.0 | 6.0 | 0.00 | 0.00 | 0.00 | 88 | 1013.5 |
| 20260504043541 | 50 | 88 | 2.0 | 6.0 | 0.00 | 0.00 | 0.00 | 88 | 1013.4 |
| 20260504043339 | 50 | 40 | 2.0 | 6.0 | 0.00 | 0.00 | 0.00 | 88 | 1013.5 |
| 20260504042815 | 50 | 98 | 3.0 | 7.0 | 0.00 | 0.00 | 0.00 | 88 | 1013.4 |
| 20260504042610 | 50 | 47 | 3.0 | 7.0 | 0.00 | 0.00 | 0.00 | 88 | 1013.5 |
| 20260504042409 | 50 | 71 | 3.0 | 7.0 | 0.00 | 0.00 | 0.00 | 87 | 1013.4 |
| 20260504042205 | 50 | 58 | 3.0 | 7.0 | 0.00 | 0.00 | 0.00 | 87 | 1013.4 |
| 20260504042006 | 50 | 69 | 2.0 | 7.0 | 0.00 | 0.00 | 0.00 | 87 | 1013.4 |
| 20260504041805 | 50 | 72 | 2.0 | 7.0 | 0.00 | 0.00 | 0.00 | 87 | 1013.6 |
| 20260504041606 | 50 | 41 | 2.0 | 7.0 | 0.00 | 0.00 | 0.00 | 87 | 1013.5 |
| 20260504041402 | 50 | 34 | 2.0 | 7.0 | 0.00 | 0.00 | 0.00 | 87 | 1013.5 |
| 20260504041152 | 50 | 96 | 2.0 | 7.0 | 0.00 | 0.00 | 0.00 | 87 | 1013.6 |
| 20260504040943 | 50 | 56 | 2.0 | 7.0 | 0.00 | 0.00 | 0.00 | 87 | 1013.6 |
| 20260504040417 | 50 | 74 | 3.0 | 6.0 | 0.00 | 0.00 | 0.00 | 87 | 1013.7 |
| 20260504040217 | 50 | 63 | 3.0 | 6.0 | 0.00 | 0.00 | 0.00 | 87 | 1013.6 |
| 20260504040014 | 50 | 79 | 2.0 | 5.0 | 0.00 | 0.00 | 0.00 | 87 | 1013.7 |
| 20260504035125 | 49 | 56 | 1.0 | 6.0 | 0.00 | 0.00 | 0.00 | 88 | 1013.9 |
| 20260504034917 | 49 | 84 | 2.0 | 6.0 | 0.00 | 0.00 | 0.00 | 88 | 1013.8 |
| 20260504034709 | 49 | 56 | 2.0 | 6.0 | 0.00 | 0.00 | 0.00 | 89 | 1013.8 |
| 20260504034504 | 49 | 116 | 2.0 | 6.0 | 0.00 | 0.00 | 0.00 | 89 | 1013.9 |
| 20260504034257 | 49 | 108 | 2.0 | 6.0 | 0.00 | 0.00 | 0.00 | 89 | 1013.9 |
| 20260504034052 | 49 | 101 | 2.0 | 6.0 | 0.00 | 0.00 | 0.00 | 89 | 1014.0 |
| 20260504033843 | 49 | 74 | 2.0 | 6.0 | 0.00 | 0.00 | 0.00 | 89 | 1013.9 |
| 20260504033643 | 49 | 59 | 1.0 | 4.0 | 0.00 | 0.00 | 0.00 | 89 | 1013.9 |
| 20260504033435 | 49 | 103 | 1.0 | 4.0 | 0.00 | 0.00 | 0.00 | 89 | 1014.0 |
| 20260504033235 | 49 | 101 | 1.0 | 4.0 | 0.00 | 0.00 | 0.00 | 89 | 1013.9 |
| 20260504032709 | 49 | 82 | 0.0 | 4.0 | 0.00 | 0.00 | 0.00 | 89 | 1014.0 |
| 20260504032138 | 49 | 103 | 0.0 | 4.0 | 0.00 | 0.00 | 0.00 | 89 | 1014.1 |
| 20260504031939 | 49 | 97 | 1.0 | 4.0 | 0.00 | 0.00 | 0.00 | 88 | 1014.1 |
| 20260504031412 | 50 | 112 | 0.0 | 3.0 | 0.00 | 0.00 | 0.00 | 87 | 1014.2 |
| 20260504031212 | 50 | 106 | 0.0 | 2.0 | 0.00 | 0.00 | 0.00 | 87 | 1014.2 |
| 20260504031010 | 50 | 113 | 0.0 | 2.0 | 0.00 | 0.00 | 0.00 | 86 | 1014.1 |
| 20260504030808 | 50 | 107 | 0.0 | 1.0 | 0.00 | 0.00 | 0.00 | 86 | 1014.2 |
| 20260504030240 | 51 | 97 | 0.0 | 0.0 | 0.00 | 0.00 | 0.00 | 85 | 1014.1 |
| 20260504025721 | 50 | 98 | 0.0 | 2.0 | 0.00 | 0.00 | 0.00 | 85 | 1014.2 |
| 20260504025522 | 51 | 109 | 0.0 | 1.0 | 0.00 | 0.00 | 0.00 | 84 | 1014.3 |
| 20260504025314 | 51 | 122 | 0.0 | 1.0 | 0.00 | 0.00 | 0.00 | 84 | 1014.4 |